Regional Weather Roundup
Issued by NWS Bismarck, ND

Home | Current Version | Previous Version | Text Only | Print | Product List | Glossary On
Versions: 1 2 3 4 5 6 7 8 9 10 11 12 13 14 15 16 17 18 19 20 21 22 23 24 25 26 27 28 29 30 31 32 33 34 35 36 37 38 39 40 41 42 43 44 45 46 47 48 49 50
000
ASUS43 KBIS 260410
RWRBIS

NWR BROADCAST TEXT
NATIONAL WEATHER SERVICE BISMARCK ND
1100 PM CDT SAT MAR 25 2017

NOTE: "FAIR" INDICATES FEW OR NO CLOUDS BELOW 12,000 FEET WITH NO
SIGNIFICANT WEATHER AND/OR OBSTRUCTIONS TO VISIBILITY.


CITY           SKY/WX    TMP DP  RH WIND       PRES   REMARKS
WILLISTON      FAIR      46  32  58 W3        29.88S
MINOT          CLOUDY    47  35  63 SW8       29.87F
MINOT AFB      MOCLDY    41  35  79 W3        29.86F
BISMARCK       CLOUDY    45  34  65 SE5       29.93S
DICKINSON      CLOUDY    44  29  55 S3        29.88S
GARRISON         N/A     40  33  76 SE6       29.88F
HETTINGER ARPT CLOUDY    46  34  62 E3        29.89F
JAMESTOWN      FAIR      32  30  92 S8        29.97R
HAZEN          CLOUDY    45  34  65 CALM      29.91F
LINTON           N/A     41  39  93 SE14      29.94F
MANDAN         CLOUDY    43  34  70 S10       29.92S
RUGBY            N/A     36  36 100 S10       29.90F
STANLEY        CLOUDY    43  37  81 NE5       29.91S
TIOGA          MOCLDY    43  34  70 NE7       29.90S
WATFORD CITY   FAIR      45  36  70 SW5       29.87F
$$

CITY           SKY/WX    TMP DP  RH WIND       PRES   REMARKS
GRAND FORKS    FAIR      34  33  96 SE9       29.99F
GRAND FORKS AF FAIR      34  33  95 S6        29.98F
DEVILS LAKE    CLOUDY    35  32  88 S9        29.95F
FARGO          FAIR      30  28  92 CALM      30.02F
CAVALIER         N/A     34  32  93 S10       29.97F
GRAFTON        FAIR      32  32 100 S6        30.02S
GWINNER          N/A     36  34  93 MISG      30.01S
LANGDON        FAIR      34  34 100 S15       29.94F
ROLLA          CLOUDY    34  34 100 SW10      29.91F
$$

CITY           SKY/WX    TMP DP  RH WIND       PRES   REMARKS
ABERDEEN       CLOUDY    36  33  89 SE13      30.00S
MOBRIDGE       FAIR      43  32  65 SE8       29.90S
BUFFALO          N/A     50  32  50 NE13      29.81S
RAPID CITY     FAIR      50  35  56 NW10      29.80F
GLASGOW        FAIR      45  29  53 SE6       29.88S
SIDNEY         FAIR      45  32  60 CALM      29.89S
WOLF POINT     FAIR      46  31  55 CALM      29.89S
GLENDIVE       MOCLDY    48  30  49 CALM      29.91S
MILES CITY     FAIR      50  33  52 S7        29.90S
BAKER          CLOUDY    46  34  62 N10       29.91F
$$

CITY           SKY/WX    TMP DP  RH WIND       PRES   REMARKS
BILLINGS       MOCLDY    47  30  51 SW7       29.91S
GREAT FALLS    FAIR      36  21  54 W10       29.91R
REGINA         PTCLDY    39  34  81 E7        29.86F
ESTEVAN        PTCLDY    36  34  93 NE5       29.88S
$$





USA.gov is the U.S. government's official web portal to all federal, state and local government web resources and services.